User: anonymous   Login
Location: Hertford
(51.8000°N, 0.0667°W)
Time: 12:06:38
(UTC+00:00)
Language:

Cosmos 1842 - Orbit

View from above orbital plane
View from above orbital plane
View from above satellite
View from above satellite

Ground track
Ground track

The orbit data is extracted from the following two-line orbital elements,

1 17911U 87038A   21135.80663291  .00000818  00000-0  45017-4 0  9990
2 17911  82.5248 235.0631 0011176  10.0704 350.0748 15.12624103857370
Epoch (UTC): 15 May 2021 19:21:33
Eccentricity: 0.0011176
inclination: 82.5248°
perigee height: 520 km
apogee height: 536 km
right ascension of ascending node: 235.0631°
argument of perigee: 10.0704°
revolutions per day: 15.12624103
mean anomaly at epoch: 350.0748°
orbit number at epoch: 85737

The dashed part of the orbit path shows where the satellite is in the earth's shadow,  

DLR